Wind_Speed
76 77 77 78 79 80 81 82 83 84 85 85 86 87 87 87 87 87 87 87 86 85 86 87 87 86 86 86 86 87 88 89 89 84 82 80 79 78 78 77 75 73 71
80 80 81 82 83 84 85 86 87 88 88 89 89 88 89 89 89 90 90 90 90 88 88 88 88 88 87 86 86 86 87 89 91 90 86 84 82 81 81 81 80 78 75
84 85 86 86 88 89 90 91 93 94 94 95 95 95 95 95 95 95 96 96 95 94 93 92 90 89 89 88 87 86 87 88 90 91 89 87 85 83 83 83 82 80 78
88 89 90 91 91 92 94 95 96 97 98 99 101 101 102 102 103 103 104 103 102 101 100 100 98 95 93 92 91 89 88 88 89 90 90 88 87 86 86 85 83 81 79
88 88 88 89 89 89 89 90 91 92 94 96 97 99 101 102 104 107 109 110 110 109 108 107 106 104 102 100 98 95 93 92 91 90 89 89 88 87 85 84 83 82 81
82 81 80 79 78 78 78 78 79 80 81 83 86 88 91 93 96 100 104 108 110 112 113 112 112 111 109 107 106 103 101 98 95 93 92 90 88 87 86 85 84 84 83
72 70 68 68 68 68 69 70 71 72 73 74 76 78 79 81 84 88 92 97 100 103 106 110 112 113 114 113 111 110 107 105 102 99 96 92 89 89 88 87 85 84 82
63 63 63 65 66 68 69 71 72 73 73 74 74 75 75 76 79 81 83 85 87 89 92 96 101 104 107 110 113 113 112 110 108 105 102 97 94 92 91 89 88 85 83
62 63 64 66 68 69 71 72 73 73 72 72 72 72 72 72 73 75 76 77 77 78 81 84 87 91 94 100 105 109 111 111 109 109 107 103 99 97 95 93 92 90 86
62 64 66 68 69 70 71 71 71 70 68 67 65 64 62 61 62 62 64 64 65 67 70 75 78 82 85 90 95 100 104 106 107 109 109 107 105 102 99 97 94 92 89
62 64 66 68 69 69 69 68 67 64 61 58 55 52 51 51 51 52 54 55 57 59 62 66 70 75 79 83 88 93 95 97 101 105 107 108 107 106 103 100 97 94 91
61 63 65 66 67 67 66 63 60 57 53 49 46 44 44 45 46 48 50 53 56 58 60 63 68 72 76 80 84 87 89 92 95 97 100 103 105 104 103 100 98 96 93
61 62 63 63 64 63 61 57 52 49 46 43 42 40 40 42 44 47 50 52 55 58 59 62 65 68 71 75 79 82 85 87 89 91 93 94 96 97 99 99 99 98 96
61 61 61 60 60 59 56 51 46 43 42 40 39 39 39 40 43 46 48 51 53 56 58 60 61 63 64 66 69 73 77 80 82 84 85 87 89 91 94 96 97 98 98
60 59 58 57 56 54 49 45 42 41 40 39 38 37 38 40 43 46 48 50 53 55 56 56 55 54 55 56 57 61 65 70 72 73 76 79 83 86 88 90 93 96 98
57 56 55 53 52 48 43 39 39 39 39 39 39 40 41 43 44 46 48 50 52 54 55 53 51 49 46 45 46 48 52 57 61 63 66 69 73 78 82 85 88 91 94
54 53 51 50 48 43 38 35 33 35 38 39 40 41 43 44 45 45 47 48 49 51 51 49 47 43 39 37 37 38 41 45 50 54 58 61 65 69 74 79 83 86 89
52 51 49 46 43 38 35 33 32 32 33 36 39 42 43 45 45 45 46 46 45 47 47 45 41 37 33 30 30 31 33 37 41 46 50 54 58 62 67 71 76 80 83
50 49 46 43 38 35 32 31 31 32 33 35 38 41 44 45 46 46 45 43 41 41 42 40 37 32 28 25 24 25 27 30 34 38 42 46 50 55 59 63 67 72 77
50 48 44 39 35 32 30 30 31 32 34 36 38 40 42 43 43 43 42 40 38 37 37 36 33 29 25 22 22 23 24 27 30 33 36 40 43 47 51 55 59 64 69
48 45 41 36 32 29 28 29 30 31 34 37 39 41 42 43 42 41 38 35 33 32 33 32 30 27 23 20 19 20 22 24 27 29 32 34 37 40 43 47 51 55 60
45 41 37 33 30 27 27 27 29 31 34 37 39 41 43 43 42 40 36 32 29 28 28 28 28 26 23 20 19 18 19 20 22 24 26 28 31 33 36 40 43 47 51
40 36 32 29 26 25 25 25 28 30 33 36 38 40 41 40 39 37 33 29 27 25 25 25 25 24 22 20 18 17 17 17 18 19 20 22 24 27 30 33 36 39 42
34 31 28 25 23 22 22 24 27 29 32 34 36 38 38 37 35 33 31 27 25 23 23 22 22 21 20 18 17 16 15 15 15 17 18 20 21 23 26 28 30 33 35
30 27 24 22 21 20 21 23 25 28 30 32 34 35 35 34 32 30 28 26 24 22 21 20 19 19 18 17 17 15 14 13 13 14 15 17 19 22 24 26 29 31 33
26 23 21 19 18 18 19 22 24 26 29 31 32 32 31 30 29 27 25 24 23 21 20 19 18 17 16 16 15 14 13 12 12 11 12 13 15 18 21 24 26 29 31
Wind_Direction
278 277 276 275 274 273 272 271 270 269 268 268 267 267 267 267 267 267 266 265 264 263 262 261 260 260 260 260 260 259 259 258 257 255 256 255 255 255 255 254 254 253 254
281 280 279 278 277 276 274 273 272 271 271 270 269 268 268 268 267 266 266 265 264 263 262 261 261 261 261 261 261 261 260 259 258 256 256 256 255 255 254 254 254 253 253
283 282 281 279 278 277 275 274 273 272 271 271 270 269 268 268 267 266 265 264 263 263 262 262 262 262 262 261 261 262 262 261 260 257 256 256 256 255 255 254 254 253 253
284 283 282 281 279 278 277 275 274 273 272 271 270 269 268 267 266 265 264 263 262 262 262 262 262 262 262 261 261 261 262 261 261 260 258 257 256 256 255 254 254 253 253
285 284 283 283 282 281 280 279 278 277 276 275 274 272 271 270 268 267 265 264 262 261 261 261 261 262 262 262 262 261 261 261 260 260 259 258 257 257 257 255 254 252 251
286 285 285 285 285 284 284 283 283 282 281 280 279 277 276 274 273 271 269 266 265 263 262 261 261 260 261 261 261 261 260 260 259 259 259 258 258 257 256 255 253 252 251
287 287 288 288 288 288 288 287 286 286 285 284 283 281 279 278 276 274 273 271 268 266 264 262 261 260 260 260 260 260 259 258 258 258 258 257 257 256 255 254 253 252 252
289 290 290 291 291 291 291 291 291 290 289 287 286 284 282 280 278 276 275 273 272 270 268 266 263 261 260 259 258 257 257 257 257 257 257 256 255 254 254 253 251 250 249
290 291 292 293 293 293 293 293 293 292 291 290 289 287 285 283 280 278 276 275 274 272 270 268 266 263 261 259 257 256 255 254 254 255 255 254 253 253 253 253 252 250 249
291 292 293 294 294 294 294 295 295 295 294 293 292 290 288 285 283 281 279 278 276 274 272 270 268 266 263 260 258 256 254 253 251 251 251 251 250 250 251 251 251 251 249
292 293 294 295 295 296 297 297 298 298 297 296 296 294 292 290 287 285 283 282 281 279 277 274 271 268 265 263 260 258 256 253 251 249 248 248 247 247 248 249 249 249 249
294 295 295 296 297 298 299 300 300 299 298 298 298 298 297 295 292 290 289 288 288 286 283 280 275 271 267 264 262 259 257 254 251 249 248 246 246 245 246 246 247 247 246
296 296 297 298 299 300 301 301 300 299 299 300 300 301 300 298 296 295 294 294 294 294 292 289 284 278 272 266 262 259 257 254 252 250 248 247 245 244 243 243 243 243 243
297 297 297 298 299 301 302 300 299 299 300 302 303 303 302 301 299 299 298 298 298 298 297 295 291 285 278 271 264 259 256 253 252 250 248 246 244 242 241 241 241 241 241
297 297 297 298 300 301 300 299 299 300 303 304 305 306 305 304 303 302 303 303 302 302 302 301 296 289 282 275 267 261 255 251 250 249 247 245 244 242 240 240 239 239 239
296 297 297 298 300 299 296 296 300 303 306 308 310 311 312 310 308 307 307 308 308 309 310 309 305 298 288 279 271 263 255 250 247 246 246 245 243 242 240 238 238 238 238
295 296 297 298 299 297 294 293 296 303 308 311 313 314 315 314 314 313 313 313 312 313 315 313 310 304 294 283 274 265 256 249 246 244 243 243 242 241 240 238 237 237 237
294 296 297 297 297 294 293 294 297 301 306 311 315 317 317 317 316 316 316 315 315 317 319 318 314 308 299 288 277 268 258 251 247 244 243 243 242 242 240 239 238 237 237
294 295 295 295 293 291 291 294 299 304 308 312 316 318 319 319 318 317 317 317 317 319 323 322 318 312 303 292 281 271 262 255 250 247 245 244 244 243 242 240 239 238 237
293 293 292 291 289 288 290 294 300 306 311 315 317 318 319 319 318 318 317 316 317 321 325 326 323 317 308 297 286 275 266 259 254 251 249 248 247 245 244 242 240 239 238
291 290 288 287 285 285 288 294 301 307 313 316 318 320 321 321 320 319 317 314 315 320 325 328 328 322 314 304 292 281 273 267 262 258 255 253 250 247 244 242 240 239 238
289 286 283 282 281 282 287 295 303 310 315 318 321 324 325 325 324 323 320 317 315 318 325 330 331 329 322 312 299 288 278 271 266 262 259 255 251 247 244 241 239 238 237
284 280 277 275 276 279 287 297 305 312 317 321 324 326 327 327 327 326 324 320 318 319 323 327 331 332 329 323 314 303 290 279 269 261 256 253 249 245 242 239 237 236 236
278 274 270 269 271 278 288 299 308 314 319 323 326 327 328 329 329 329 329 326 323 321 323 327 330 333 331 329 325 318 308 295 280 267 256 247 241 237 236 234 233 232 231
270 265 262 263 268 278 291 302 310 316 321 325 327 329 330 330 330 331 333 334 332 328 326 327 329 332 334 332 330 325 320 311 298 283 268 255 244 238 233 230 228 227 226
259 254 252 256 266 280 293 304 312 318 323 326 328 330 331 332 331 331 333 336 339 339 337 334 332 331 332 332 332 330 325 320 312 299 280 263 251 244 238 233 230 228 228
Height
5626 5623 5620 5617 5614 5611 5608 5605 5602 5599 5597 5596 5594 5593 5592 5591 5590 5589 5589 5589 5590 5592 5593 5594 5596 5596 5598 5599 5600 5601 5603 5606 5613 5623 5626 5629 5631 5635 5637 5640 5643 5647 5650
5603 5600 5597 5594 5590 5587 5583 5580 5577 5574 5572 5570 5569 5569 5567 5566 5565 5563 5563 5562 5563 5565 5566 5568 5571 5572 5574 5575 5576 5578 5579 5581 5586 5595 5601 5604 5608 5612 5615 5618 5622 5627 5631
5580 5576 5572 5569 5565 5561 5557 5553 5550 5548 5545 5543 5542 5541 5540 5539 5538 5536 5535 5535 5535 5537 5539 5541 5544 5545 5548 5550 5551 5553 5555 5557 5560 5566 5575 5579 5584 5588 5591 5596 5601 5606 5610
5555 5550 5545 5541 5537 5532 5528 5524 5521 5518 5515 5514 5512 5510 5509 5508 5507 5505 5502 5503 5505 5508 5510 5513 5516 5518 5521 5523 5525 5528 5529 5532 5535 5540 5548 5553 5558 5563 5566 5574 5579 5585 5589
5530 5524 5519 5514 5509 5504 5499 5495 5491 5488 5485 5482 5480 5479 5477 5475 5473 5469 5467 5468 5472 5476 5480 5484 5486 5488 5491 5493 5496 5500 5501 5505 5509 5514 5521 5527 5533 5539 5546 5552 5555 5559 5563
5506 5501 5495 5490 5485 5479 5475 5471 5467 5463 5459 5455 5452 5448 5446 5443 5439 5434 5430 5432 5436 5441 5447 5451 5453 5456 5460 5461 5464 5467 5471 5475 5482 5486 5493 5501 5511 5516 5520 5523 5527 5531 5540
5484 5480 5475 5470 5464 5459 5454 5449 5445 5440 5436 5432 5427 5422 5419 5416 5408 5403 5399 5397 5401 5406 5409 5413 5417 5422 5424 5426 5430 5432 5437 5443 5450 5457 5463 5475 5484 5490 5492 5498 5502 5507 5517
5466 5462 5457 5451 5446 5440 5435 5429 5423 5418 5413 5408 5403 5397 5393 5389 5381 5376 5371 5369 5371 5373 5374 5375 5378 5384 5388 5389 5391 5395 5402 5410 5420 5425 5434 5448 5453 5457 5461 5470 5476 5482 5488
5450 5445 5439 5433 5428 5422 5415 5409 5402 5396 5390 5384 5378 5372 5367 5362 5355 5349 5345 5344 5345 5345 5344 5343 5343 5346 5352 5351 5351 5357 5366 5376 5384 5389 5398 5410 5420 5426 5431 5438 5447 5455 5466
5435 5429 5422 5415 5409 5402 5396 5389 5381 5374 5368 5361 5356 5349 5343 5338 5331 5326 5322 5321 5321 5320 5318 5316 5314 5314 5315 5314 5314 5318 5326 5340 5347 5352 5360 5372 5384 5393 5400 5409 5420 5428 5441
5418 5412 5405 5397 5390 5383 5376 5368 5361 5354 5348 5341 5336 5330 5323 5318 5313 5307 5302 5300 5298 5297 5295 5292 5289 5285 5284 5283 5281 5284 5292 5301 5306 5314 5323 5334 5346 5358 5370 5381 5391 5401 5413
5402 5395 5388 5380 5372 5364 5358 5350 5343 5336 5330 5325 5320 5315 5308 5302 5297 5292 5287 5282 5278 5275 5272 5267 5263 5258 5255 5253 5251 5253 5258 5263 5270 5278 5288 5300 5313 5327 5340 5351 5361 5370 5382
5385 5378 5371 5363 5356 5348 5341 5334 5328 5322 5316 5311 5306 5301 5296 5289 5283 5277 5271 5265 5258 5252 5247 5241 5234 5228 5224 5222 5222 5222 5224 5229 5236 5245 5256 5269 5283 5296 5307 5316 5326 5337 5348
5369 5362 5355 5348 5341 5334 5326 5320 5315 5309 5304 5299 5294 5289 5284 5277 5270 5263 5257 5251 5243 5234 5226 5218 5209 5200 5194 5191 5191 5192 5194 5200 5206 5215 5226 5239 5251 5261 5272 5284 5294 5305 5316
5352 5346 5339 5333 5326 5320 5314 5308 5303 5298 5291 5287 5282 5277 5271 5266 5257 5250 5242 5235 5226 5217 5207 5198 5188 5178 5171 5166 5164 5165 5168 5173 5180 5189 5199 5209 5220 5231 5243 5255 5264 5274 5285
5336 5330 5325 5319 5313 5307 5302 5299 5292 5287 5281 5275 5269 5264 5258 5251 5244 5236 5228 5218 5208 5198 5188 5178 5168 5159 5152 5147 5145 5145 5147 5152 5159 5167 5175 5184 5193 5204 5216 5226 5236 5246 5258
5321 5316 5311 5305 5300 5295 5290 5287 5284 5279 5272 5265 5259 5252 5245 5238 5231 5223 5214 5205 5195 5184 5174 5164 5154 5145 5138 5134 5132 5132 5133 5137 5142 5148 5156 5163 5171 5180 5189 5200 5210 5221 5232
5307 5302 5297 5292 5287 5283 5280 5276 5272 5268 5264 5257 5249 5242 5234 5226 5218 5210 5202 5193 5183 5173 5163 5153 5143 5135 5129 5125 5123 5123 5124 5126 5130 5135 5141 5147 5153 5160 5169 5178 5188 5199 5209
5292 5288 5283 5279 5275 5272 5269 5266 5262 5258 5253 5247 5241 5232 5224 5215 5206 5198 5190 5182 5174 5165 5155 5145 5136 5129 5123 5119 5117 5116 5117 5118 5121 5125 5129 5134 5139 5145 5151 5159 5168 5177 5187
5278 5274 5270 5267 5264 5262 5259 5256 5253 5248 5243 5237 5231 5224 5216 5207 5197 5188 5179 5172 5165 5157 5148 5140 5131 5124 5119 5115 5112 5111 5111 5112 5114 5116 5119 5123 5127 5131 5137 5143 5151 5159 5167
5263 5260 5257 5255 5253 5251 5249 5247 5243 5239 5233 5227 5220 5213 5205 5197 5188 5179 5171 5164 5157 5150 5143 5135 5128 5121 5115 5111 5108 5107 5106 5107 5107 5109 5111 5113 5116 5120 5124 5129 5136 5142 5150
5248 5246 5244 5243 5242 5241 5240 5237 5234 5229 5224 5218 5210 5202 5194 5186 5178 5170 5162 5156 5150 5144 5138 5132 5125 5118 5113 5108 5105 5103 5101 5100 5101 5102 5103 5105 5107 5109 5113 5117 5123 5129 5136
5235 5233 5233 5232 5232 5232 5230 5228 5225 5220 5215 5209 5201 5194 5186 5178 5170 5162 5155 5149 5144 5138 5133 5128 5122 5116 5111 5106 5103 5100 5097 5096 5095 5095 5096 5097 5099 5102 5105 5108 5113 5118 5124
5222 5222 5222 5222 5223 5222 5221 5219 5216 5212 5206 5200 5193 5186 5179 5171 5164 5157 5150 5144 5138 5134 5129 5124 5119 5114 5109 5105 5101 5098 5095 5093 5092 5091 5090 5091 5092 5094 5097 5101 5105 5110 5115
5211 5211 5212 5213 5214 5214 5213 5211 5208 5203 5198 5192 5186 5179 5172 5166 5159 5152 5146 5140 5135 5130 5125 5121 5116 5112 5108 5104 5101 5097 5094 5091 5089 5088 5087 5087 5088 5089 5092 5094 5098 5102 5107
5200 5202 5203 5205 5206 5205 5204 5202 5199 5195 5191 5185 5179 5173 5167 5161 5155 5149 5144 5138 5133 5127 5123 5118 5114 5110 5106 5103 5100 5096 5093 5090 5088 5086 5085 5085 5085 5087 5088 5090 5093 5096 5100